Weather Roundup
Issued by NWS

Home | Current Version | Previous Version | Graphics & Text | Print | Product List | Glossary Off
Versions: 1 2 3 4 5 6 7 8 9 10 11 12 13 14 15 16 17 18 19 20 21 22 23 24 25 26 27 28 29 30 31 32 33 34 35 36 37 38 39 40 41 42 43 44 45 46 47 48 49 50

000
NZUS93 KARX 290410
HRRWXR

CURRENT HOURLY OBSERVATIONS ACROSS
MUCH OF THE UPPER MISSISSIPPI VALLEY
NATIONAL WEATHER SERVICE LA CROSSE WI
1100 PM CDT MON JUL 28 2014


...SOUTHEAST MINNESOTA...


CITY           SKY/WX    TMP DP  RH WIND       PRES   REMARKS
ROCHESTER      CLEAR     59  53  80 W8        30.15F
ROCHESTER/MAYO FAIR      64  53  65 W3        30.14S
WINONA         CLEAR     61  54  77 CALM      30.12S
AUSTIN         PTCLDY    63  55  77 CALM      30.15S
ALBERT LEA     CLEAR     63  54  72 CALM      30.16F
DODGE CENTER   PTCLDY    61  55  82 W7        30.15S
PRESTON        CLEAR     59  56  91 W7        30.15S
OWATONNA       CLEAR     57  54  88 CALM      30.16S
FARIBAULT      CLEAR     63  54  72 W5        30.15S
$$

...ELSEWHERE IN MINNESOTA...


CITY           SKY/WX    TMP DP  RH WIND       PRES   REMARKS
MINNEAPOLIS    CLEAR     67  55  65 W6        30.13S
INTNL FALLS    PTCLDY    60  56  86 CALM      30.12F
DULUTH         CLEAR     62  54  74 NW8       30.11S
RED WING       CLEAR     59  55  88 CALM      30.11S
REDWOOD FALLS  CLEAR     60  54  80 NW7       30.18S
MANKATO        CLEAR     63  52  67 NW3       30.16S
WORTHINGTON    CLEAR     55  52  88 NW5       30.23S
FAIRMONT       CLEAR     61  52  72 NW7       30.18S
$$

...SOUTHWEST WISCONSIN...


CITY           SKY/WX    TMP DP  RH WIND       PRES   REMARKS
LA CROSSE      CLEAR     63  57  81 E5        30.10F
PRAIRIE DU CHI CLEAR     58  53  84 CALM      30.11F
BOSCOBEL       CLEAR     56  53  90 CALM      30.11F
LONE ROCK      CLEAR     61  54  77 W5        30.10S
PLATTEVILLE    CLEAR     60  53  76 NW5       30.12F
FORT MC COY    CLEAR     55  53  94 CALM      30.12S
CAMP DOUGLAS   MOCLDY    55  54  94 W6        30.09S
VIROQUA        FAIR      58  53  83 CALM      30.12F
WIS DELLS      CLOUDY    63  52  67 W5        30.09S
$$

...ELSEWHERE IN WISCONSIN...


CITY           SKY/WX    TMP DP  RH WIND       PRES   REMARKS
MILWAUKEE      MOCLDY    59  49  69 S5        30.06F
MADISON        PTCLDY    64  52  64 W8        30.08S
GREEN BAY      CLOUDY    62  56  80 W6        30.03F
EAU CLAIRE     MOCLDY    60  54  80 W3        30.10S
BLACK RVR FLS  FAIR      51  50  96 CALM      30.10S
MEDFORD        MOCLDY    57  54  90 W6        30.09S
WAUSAU         CLOUDY    63  56  78 NW8       30.06F
WIS RAPIDS     CLEAR     62  55  77 W5        30.09F
MARSHFIELD     PTCLDY    61  54  77 NW7       30.08F
RICE LAKE      CLEAR     59  54  84 CALM      30.13S
$$

...NORTHEAST IOWA...


CITY           SKY/WX    TMP DP  RH WIND       PRES   REMARKS
WATERLOO       CLEAR     59  56  89 CALM      30.13F
DUBUQUE        CLEAR     57  52  83 NW3       30.12F
DECORAH        CLEAR     57  54  88 CALM      30.13S
MASON CITY     CLEAR     57  53  86 W6        30.18S
CHARLES CITY   FAIR      59  55  88 NW5       30.15F
OELWEIN        CLEAR     57  55  94 NW5       30.15S
$$

...ELSEWHERE IN IOWA...


CITY           SKY/WX    TMP DP  RH WIND       PRES   REMARKS
DES MOINES     CLEAR     65  59  81 NW3       30.16S
IOWA CITY      CLEAR     61  58  90 CALM      30.14S
FORT DODGE     CLEAR     57  54  88 CALM      30.19S
MARSHALLTOWN   CLEAR     59  57  93 W6        30.15S
CEDAR RAPIDS   CLEAR     60  55  83 NW7       30.13S
$$

...NORTHERN ILLINOIS...


CITY           SKY/WX    TMP DP  RH WIND       PRES   REMARKS
CHICAGO-OHARE  CLOUDY    62  49  62 CALM      30.05F
DUPAGE         PTCLDY    61  52  72 W6        30.06F
CHICAGO-MIDWAY CLOUDY    65  50  58 S6        30.06F
MOLINE         CLEAR     57  53  86 CALM      30.11F
ROCKFORD       PTCLDY    61  53  75 W7        30.10F
STERLING       CLEAR     59  52  77 NW7       30.11S
PEORIA         CLEAR     61  54  77 CALM      30.11F
$$

NOTE: "FAIR" INDICATES FEW OR NO CLOUDS BELOW 12,000 FEET WITH NO
SIGNIFICANT WEATHER AND/OR OBSTRUCTIONS TO VISIBILITY. WIND
SPEEDS ARE IN MILES-PER-HOUR.



USA.gov is the U.S. government's official web portal to all federal, state and local government web resources and services.